| time (UTC) | temp C | wind direction | speed KPH | gust KPH | rain 1hr cm | rain 24hr cm | rain mn cm | humidity % | barometer mb |
| 20260505140510 | 17 | 196 | 4.8 | 12.9 | 0.00 | 0.00 | 0.00 | 71 | 1007.0 |
| 20260505125009 | 15 | 199 | 3.2 | 4.8 | 0.00 | 0.00 | 0.00 | 77 | 1006.9 |
| 20260505124522 | 15 | 178 | 3.2 | 4.8 | 0.00 | 0.00 | 0.00 | 76 | 1006.7 |
| 20260505124013 | 15 | 181 | 0.0 | 4.8 | 0.00 | 0.00 | 0.00 | 77 | 1006.7 |
| 20260505123513 | 15 | 185 | 3.2 | 4.8 | 0.00 | 0.00 | 0.00 | 76 | 1006.7 |
| 20260505123008 | 15 | 201 | 1.6 | 6.4 | 0.00 | 0.00 | 0.00 | 76 | 1006.8 |
| 20260505122503 | 15 | 206 | 3.2 | 8.0 | 0.00 | 0.00 | 0.00 | 77 | 1006.4 |
| 20260505122006 | 15 | 198 | 3.2 | 12.9 | 0.00 | 0.00 | 0.00 | 77 | 1006.1 |
| 20260505121513 | 15 | 190 | 3.2 | 20.9 | 0.00 | 0.00 | 0.00 | 78 | 1005.9 |
| 20260505121006 | 15 | 168 | 4.8 | 20.9 | 0.00 | 0.00 | 0.00 | 77 | 1005.6 |
| 20260505120507 | 15 | 149 | 8.0 | 16.1 | 0.00 | 0.00 | 0.00 | 78 | 1005.4 |
| 20260505120018 | 15 | 165 | 4.8 | 8.0 | 0.00 | 0.00 | 0.00 | 78 | 1005.9 |
| 20260505115511 | 15 | 176 | 3.2 | 8.0 | 0.00 | 0.00 | 0.00 | 78 | 1005.6 |
| 20260505115006 | 15 | 180 | 3.2 | 6.4 | 0.00 | 0.00 | 0.00 | 79 | 1005.8 |
| 20260505114520 | 15 | 189 | 3.2 | 6.4 | 0.00 | 0.00 | 0.00 | 79 | 1005.9 |
| 20260505114009 | 15 | 180 | 3.2 | 6.4 | 0.00 | 0.00 | 0.00 | 78 | 1006.0 |
| 20260505113514 | 15 | 190 | 3.2 | 4.8 | 0.00 | 0.00 | 0.00 | 77 | 1006.0 |
| 20260505113030 | 15 | 199 | 1.6 | 8.0 | 0.00 | 0.00 | 0.00 | 77 | 1006.0 |
| 20260505112510 | 15 | 176 | 1.6 | 8.0 | 0.00 | 0.00 | 0.00 | 74 | 1006.0 |
| 20260505112012 | 16 | 158 | 3.2 | 8.0 | 0.00 | 0.00 | 0.00 | 72 | 1006.2 |
| 20260505111510 | 16 | 191 | 1.6 | 9.7 | 0.00 | 0.00 | 0.00 | 69 | 1006.0 |
| 20260505111003 | 16 | 257 | 4.8 | 12.9 | 0.00 | 0.00 | 0.00 | 69 | 1006.0 |
| 20260505110504 | 16 | 177 | 3.2 | 12.9 | 0.00 | 0.00 | 0.00 | 69 | 1006.0 |
| 20260505102002 | 16 | 190 | 3.2 | 8.0 | 0.00 | 0.00 | 0.00 | 69 | 1005.7 |
| 20260505101513 | 16 | 175 | 3.2 | 8.0 | 0.00 | 0.00 | 0.00 | 68 | 1005.7 |
| 20260505101004 | 16 | 192 | 3.2 | 4.8 | 0.00 | 0.00 | 0.00 | 68 | 1005.6 |
| 20260505100506 | 16 | 172 | 1.6 | 6.4 | 0.00 | 0.00 | 0.00 | 67 | 1005.5 |
| 20260505100014 | 17 | 192 | 1.6 | 6.4 | 0.00 | 0.00 | 0.00 | 67 | 1005.5 |
| 20260505095505 | 17 | 202 | 3.2 | 6.4 | 0.00 | 0.00 | 0.00 | 66 | 1005.4 |
| 20260505095009 | 17 | 190 | 3.2 | 6.4 | 0.00 | 0.00 | 0.00 | 66 | 1005.4 |
| 20260505094525 | 17 | 191 | 3.2 | 9.7 | 0.00 | 0.00 | 0.00 | 65 | 1005.4 |
| 20260505094007 | 17 | 178 | 3.2 | 8.0 | 0.00 | 0.00 | 0.00 | 65 | 1005.3 |
| 20260505093511 | 17 | 191 | 3.2 | 8.0 | 0.00 | 0.00 | 0.00 | 65 | 1005.1 |
| 20260505093024 | 17 | 191 | 3.2 | 8.0 | 0.00 | 0.00 | 0.00 | 64 | 1005.1 |
| 20260505092506 | 17 | 173 | 3.2 | 9.7 | 0.00 | 0.00 | 0.00 | 64 | 1005.0 |
| 20260505091522 | 17 | 200 | 6.4 | 12.9 | 0.00 | 0.00 | 0.00 | 63 | 1004.7 |
| 20260505091004 | 17 | 161 | 3.2 | 9.7 | 0.00 | 0.00 | 0.00 | 63 | 1004.8 |
| 20260505090503 | 17 | 184 | 3.2 | 9.7 | 0.00 | 0.00 | 0.00 | 63 | 1004.8 |
| 20260505085504 | 18 | 193 | 3.2 | 9.7 | 0.00 | 0.00 | 0.00 | 62 | 1004.6 |
| 20260505085009 | 18 | 190 | 3.2 | 14.5 | 0.00 | 0.00 | 0.00 | 62 | 1004.6 |
| 20260505084514 | 18 | 207 | 3.2 | 14.5 | 0.00 | 0.00 | 0.00 | 62 | 1004.6 |
| 20260505084010 | 17 | 192 | 4.8 | 9.7 | 0.00 | 0.00 | 0.00 | 63 | 1004.5 |
| 20260505083507 | 17 | 217 | 3.2 | 9.7 | 0.00 | 0.00 | 0.00 | 64 | 1004.4 |
| 20260505083019 | 17 | 200 | 3.2 | 11.3 | 0.00 | 0.00 | 0.00 | 65 | 1004.4 |
| 20260505082507 | 17 | 182 | 3.2 | 11.3 | 0.00 | 0.00 | 0.00 | 65 | 1004.4 |
| 20260505082009 | 17 | 188 | 4.8 | 8.0 | 0.00 | 0.00 | 0.00 | 65 | 1004.5 |
| 20260505081523 | 17 | 186 | 3.2 | 8.0 | 0.00 | 0.00 | 0.00 | 66 | 1004.6 |
| 20260505081008 | 17 | 212 | 4.8 | 8.0 | 0.00 | 0.00 | 0.00 | 66 | 1004.5 |
| 20260505080510 | 17 | 197 | 4.8 | 8.0 | 0.00 | 0.00 | 0.00 | 66 | 1004.5 |
| 20260505080026 | 17 | 202 | 3.2 | 6.4 | 0.00 | 0.00 | 0.00 | 1004.5 | |
| 20260505075506 | 17 | 201 | 3.2 | 8.0 | 0.00 | 0.00 | 0.00 | 1004.3 | |
| 20260505073505 | 17 | 192 | 4.8 | 9.7 | 0.00 | 0.00 | 0.00 | 65 | 1004.1 |
| 20260505072506 | 17 | 188 | 6.4 | 12.9 | 0.00 | 0.00 | 0.00 | 65 | 1004.0 |
| 20260505071521 | 17 | 183 | 6.4 | 9.7 | 0.00 | 0.00 | 0.00 | 66 | 1003.9 |
| 20260505071010 | 17 | 193 | 6.4 | 12.9 | 0.00 | 0.00 | 0.00 | 66 | 1003.9 |
| 20260505070509 | 17 | 174 | 4.8 | 12.9 | 0.00 | 0.00 | 0.00 | 66 | 1003.9 |
| 20260505070036 | 17 | 202 | 6.4 | 9.7 | 0.00 | 0.00 | 0.00 | 66 | 1003.8 |
| 20260505065508 | 17 | 191 | 6.4 | 9.7 | 0.00 | 0.00 | 0.00 | 66 | 1003.9 |
| 20260505065009 | 17 | 185 | 6.4 | 9.7 | 0.00 | 0.00 | 0.00 | 66 | 1003.9 |
| 20260505064508 | 17 | 205 | 4.8 | 9.7 | 0.00 | 0.00 | 0.00 | 66 | 1004.0 |
| 20260505064006 | 17 | 178 | 4.8 | 9.7 | 0.00 | 0.00 | 0.00 | 66 | 1004.1 |
| 20260505063015 | 17 | 185 | 4.8 | 9.7 | 0.00 | 0.00 | 0.00 | 1004.0 | |
| 20260505062508 | 17 | 180 | 4.8 | 11.3 | 0.00 | 0.00 | 0.00 | 66 | 1004.2 |
| 20260505062009 | 17 | 193 | 6.4 | 11.3 | 0.00 | 0.00 | 0.00 | 66 | 1004.2 |
| 20260505061523 | 17 | 178 | 6.4 | 9.7 | 0.00 | 0.00 | 0.00 | 66 | 1004.2 |
| 20260505061010 | 17 | 177 | 4.8 | 11.3 | 0.00 | 0.00 | 0.00 | 66 | 1004.2 |
| 20260505060022 | 17 | 181 | 4.8 | 9.7 | 0.00 | 0.00 | 0.00 | 66 | 1004.2 |
| 20260505055511 | 17 | 188 | 4.8 | 9.7 | 0.00 | 0.00 | 0.00 | 66 | 1004.2 |
| 20260505055015 | 17 | 188 | 4.8 | 12.9 | 0.00 | 0.00 | 0.00 | 66 | 1004.4 |
| 20260505054533 | 17 | 173 | 4.8 | 12.9 | 0.00 | 0.00 | 0.00 | 67 | 1004.3 |
| 20260505054014 | 17 | 201 | 4.8 | 11.3 | 0.00 | 0.00 | 0.00 | 67 | 1004.5 |
| 20260505053516 | 17 | 188 | 6.4 | 11.3 | 0.00 | 0.00 | 0.00 | 67 | 1004.7 |
| 20260505052008 | 17 | 180 | 4.8 | 9.7 | 0.00 | 0.00 | 0.00 | 68 | 1004.8 |
| 20260505051009 | 17 | 194 | 4.8 | 8.0 | 0.00 | 0.00 | 0.00 | 69 | 1004.8 |
| 20260505041528 | 17 | 195 | 3.2 | 8.0 | 0.00 | 0.00 | 0.00 | 69 | 1005.1 |
| 20260505041009 | 17 | 174 | 3.2 | 8.0 | 0.00 | 0.00 | 0.00 | 69 | 1005.1 |
| 20260505035006 | 17 | 173 | 3.2 | 11.3 | 0.00 | 0.00 | 0.00 | 69 | 1005.1 |
| 20260505033508 | 17 | 186 | 4.8 | 14.5 | 0.00 | 0.00 | 0.00 | 69 | 1005.2 |
| 20260505033026 | 17 | 181 | 6.4 | 14.5 | 0.00 | 0.00 | 0.00 | 68 | 1005.2 |
| 20260505032508 | 17 | 193 | 4.8 | 12.9 | 0.00 | 0.00 | 0.00 | 70 | 1005.2 |
| 20260505032014 | 17 | 182 | 4.8 | 17.7 | 0.00 | 0.00 | 0.00 | 70 | 1005.1 |
| 20260505031537 | 17 | 174 | 8.0 | 17.7 | 0.00 | 0.00 | 0.00 | 70 | 1005.2 |
| 20260505031010 | 17 | 182 | 3.2 | 11.3 | 0.00 | 0.00 | 0.00 | 68 | 1005.3 |
| 20260505030510 | 17 | 167 | 3.2 | 9.7 | 0.00 | 0.00 | 0.00 | 68 | 1005.3 |
| 20260505030017 | 17 | 175 | 4.8 | 8.0 | 0.00 | 0.00 | 0.00 | 68 | 1005.3 |
| 20260505025510 | 17 | 175 | 4.8 | 16.1 | 0.00 | 0.00 | 0.00 | 67 | 1005.3 |
| 20260505025011 | 17 | 175 | 8.0 | 16.1 | 0.00 | 0.00 | 0.00 | 67 | 1005.2 |
| 20260505024006 | 17 | 165 | 4.8 | 9.7 | 0.00 | 0.00 | 0.00 | 68 | 1005.2 |
| 20260505022508 | 17 | 180 | 3.2 | 9.7 | 0.00 | 0.00 | 0.00 | 67 | 1005.2 |
| 20260505022014 | 17 | 181 | 3.2 | 9.7 | 0.00 | 0.00 | 0.00 | 67 | 1005.1 |
| 20260505021526 | 17 | 176 | 3.2 | 11.3 | 0.00 | 0.00 | 0.00 | 67 | 1005.1 |
| 20260505021012 | 17 | 189 | 4.8 | 12.9 | 0.00 | 0.00 | 0.00 | 67 | 1005.2 |
| 20260505020507 | 17 | 175 | 3.2 | 12.9 | 0.00 | 0.00 | 0.00 | 67 | 1005.2 |
| 20260505015508 | 17 | 158 | 3.2 | 9.7 | 0.00 | 0.00 | 0.00 | 67 | 1005.2 |
| 20260505013514 | 17 | 177 | 3.2 | 6.4 | 0.00 | 0.00 | 0.00 | 66 | 1005.3 |
| 20260505012504 | 17 | 187 | 3.2 | 8.0 | 0.00 | 0.00 | 0.00 | 65 | 1005.3 |
| 20260505010506 | 17 | 194 | 4.8 | 8.0 | 0.00 | 0.00 | 0.00 | 63 | 1005.2 |
| 20260505005507 | 18 | 183 | 4.8 | 9.7 | 0.00 | 0.00 | 0.00 | 61 | 1005.2 |
| 20260505004517 | 18 | 191 | 4.8 | 11.3 | 0.00 | 0.00 | 0.00 | 60 | 1005.1 |
| 20260505003511 | 19 | 171 | 6.4 | 12.9 | 0.00 | 0.00 | 0.00 | 58 | 1005.0 |
| 20260505002509 | 19 | 200 | 8.0 | 14.5 | 0.00 | 0.00 | 0.00 | 58 | 1005.0 |
| 20260505002009 | 19 | 200 | 3.2 | 9.7 | 0.00 | 0.00 | 0.00 | 58 | 1004.8 |
| 20260505001524 | 19 | 192 | 4.8 | 9.7 | 0.00 | 0.00 | 0.00 | 58 | 1004.7 |
| 20260505000503 | 19 | 157 | 4.8 | 8.0 | 0.00 | 0.00 | 0.00 | 58 | 1004.4 |
| 20260505000010 | 19 | 187 | 4.8 | 8.0 | 0.00 | 0.00 | 0.00 | 58 | 1004.3 |
| 20260504235510 | 20 | 173 | 3.2 | 8.0 | 0.00 | 0.00 | 0.00 | 58 | 1004.3 |
| 20260504235011 | 20 | 184 | 3.2 | 8.0 | 0.00 | 0.00 | 0.00 | 57 | 1004.2 |
| 20260504234515 | 20 | 200 | 4.8 | 9.7 | 0.00 | 0.00 | 0.00 | 56 | 1004.1 |
| 20260504234008 | 20 | 200 | 4.8 | 9.7 | 0.00 | 0.00 | 0.00 | 56 | 1004.2 |
| 20260504233023 | 20 | 192 | 4.8 | 9.7 | 0.00 | 0.00 | 0.00 | 54 | 1004.0 |
| 20260504231523 | 20 | 199 | 4.8 | 9.7 | 0.00 | 0.00 | 0.00 | 56 | 1004.0 |
| 20260504231012 | 20 | 163 | 4.8 | 9.7 | 0.00 | 0.00 | 0.00 | 56 | 1004.2 |
| 20260504230508 | 20 | 186 | 4.8 | 17.7 | 0.00 | 0.00 | 0.00 | 56 | 1004.3 |
| 20260504230024 | 20 | 191 | 6.4 | 17.7 | 0.00 | 0.00 | 0.00 | 55 | 1004.3 |
| 20260504225008 | 21 | 192 | 4.8 | 11.3 | 0.00 | 0.00 | 0.00 | 55 | 1004.5 |
| 20260504224512 | 21 | 184 | 8.0 | 11.3 | 0.00 | 0.00 | 0.00 | 54 | 1004.5 |
| 20260504224004 | 21 | 205 | 4.8 | 11.3 | 0.00 | 0.00 | 0.00 | 54 | 1004.3 |
| 20260504223507 | 21 | 167 | 4.8 | 14.5 | 0.00 | 0.00 | 0.00 | 54 | 1004.4 |
| 20260504223026 | 21 | 182 | 4.8 | 17.7 | 0.00 | 0.00 | 0.00 | 55 | 1004.5 |
| 20260504222010 | 21 | 191 | 9.7 | 17.7 | 0.00 | 0.00 | 0.00 | 54 | 1004.5 |
| 20260504221526 | 21 | 194 | 4.8 | 12.9 | 0.00 | 0.00 | 0.00 | 57 | 1004.6 |
| 20260504220024 | 21 | 198 | 6.4 | 12.9 | 0.00 | 0.00 | 0.00 | 56 | 1004.6 |
| 20260504215510 | 20 | 207 | 8.0 | 12.9 | 0.00 | 0.00 | 0.00 | 56 | 1004.7 |
| 20260504215012 | 20 | 194 | 8.0 | 12.9 | 0.00 | 0.00 | 0.00 | 57 | 1004.6 |
| 20260504214508 | 20 | 171 | 4.8 | 11.3 | 0.00 | 0.00 | 0.00 | 57 | 1004.7 |
| 20260504213025 | 21 | 164 | 4.8 | 12.9 | 0.00 | 0.00 | 0.00 | 55 | 1004.7 |
| 20260504211007 | 21 | 192 | 6.4 | 12.9 | 0.00 | 0.00 | 0.00 | 55 | 1004.6 |
| 20260504205011 | 21 | 194 | 8.0 | 14.5 | 0.00 | 0.00 | 0.00 | 57 | 1004.9 |
| 20260504204537 | 21 | 166 | 8.0 | 14.5 | 0.00 | 0.00 | 0.00 | 57 | 1005.0 |
| 20260504204016 | 21 | 147 | 4.8 | 11.3 | 0.00 | 0.00 | 0.00 | 57 | 1005.0 |
| 20260504203511 | 21 | 170 | 6.4 | 9.7 | 0.00 | 0.00 | 0.00 | 54 | 1005.0 |
| 20260504201523 | 21 | 295 | 4.8 | 14.5 | 0.00 | 0.00 | 0.00 | 56 | 1005.1 |
| 20260504200503 | 21 | 199 | 6.4 | 14.5 | 0.00 | 0.00 | 0.00 | 56 | 1005.2 |
| 20260504200005 | 21 | 174 | 4.8 | 14.5 | 0.00 | 0.00 | 0.00 | 56 | 1005.2 |
| 20260504195504 | 21 | 197 | 8.0 | 12.9 | 0.00 | 0.00 | 0.00 | 55 | 1005.3 |
| 20260504195003 | 21 | 159 | 4.8 | 14.5 | 0.00 | 0.00 | 0.00 | 55 | 1005.4 |
| 20260504194503 | 21 | 188 | 8.0 | 12.9 | 0.00 | 0.00 | 0.00 | 57 | 1005.3 |
| 20260504194007 | 21 | 193 | 6.4 | 12.9 | 0.00 | 0.00 | 0.00 | 55 | 1005.6 |
| 20260504193506 | 21 | 167 | 4.8 | 12.9 | 0.00 | 0.00 | 0.00 | 56 | 1005.6 |
| 20260504193008 | 21 | 173 | 4.8 | 14.5 | 0.00 | 0.00 | 0.00 | 57 | 1005.7 |
| 20260504191516 | 20 | 166 | 6.4 | 14.5 | 0.00 | 0.00 | 0.00 | 57 | 1005.9 |
| 20260504191007 | 20 | 181 | 6.4 | 16.1 | 0.00 | 0.00 | 0.00 | 58 | 1005.9 |
| 20260504190004 | 20 | 203 | 6.4 | 14.5 | 0.00 | 0.00 | 0.00 | 57 | 1006.2 |
| 20260504185504 | 20 | 206 | 8.0 | 14.5 | 0.00 | 0.00 | 0.00 | 57 | 1006.4 |
| 20260504185005 | 20 | 181 | 8.0 | 12.9 | 0.00 | 0.00 | 0.00 | 57 | 1006.3 |
| 20260504184504 | 20 | 179 | 8.0 | 12.9 | 0.00 | 0.00 | 0.00 | 57 | 1006.4 |
| 20260504184004 | 20 | 182 | 6.4 | 12.9 | 0.00 | 0.00 | 0.00 | 57 | 1006.4 |
| 20260504183507 | 20 | 173 | 4.8 | 12.9 | 0.00 | 0.00 | 0.00 | 60 | 1006.4 |
| 20260504183010 | 20 | 195 | 6.4 | 14.5 | 0.00 | 0.00 | 0.00 | 55 | 1006.5 |
| 20260504181515 | 20 | 167 | 6.4 | 14.5 | 0.00 | 0.00 | 0.00 | 56 | 1006.5 |
| 20260504175008 | 20 | 163 | 6.4 | 20.9 | 0.00 | 0.00 | 0.00 | 57 | 1006.5 |
| 20260504174514 | 20 | 174 | 9.7 | 20.9 | 0.00 | 0.00 | 0.00 | 56 | 1006.7 |
| 20260504174004 | 20 | 177 | 8.0 | 19.3 | 0.00 | 0.00 | 0.00 | 57 | 1006.8 |
| 20260504173504 | 20 | 166 | 8.0 | 14.5 | 0.00 | 0.00 | 0.00 | 55 | 1006.8 |
| 20260504173008 | 20 | 167 | 8.0 | 14.5 | 0.00 | 0.00 | 0.00 | 56 | 1006.9 |
| 20260504172504 | 20 | 173 | 6.4 | 14.5 | 0.00 | 0.00 | 0.00 | 58 | 1007.0 |
| 20260504172003 | 19 | 169 | 4.8 | 11.3 | 0.00 | 0.00 | 0.00 | 57 | 1007.0 |
| 20260504151004 | 17 | 159 | 4.8 | 9.7 | 0.00 | 0.00 | 0.00 | 59 | 1008.0 |
| 20260504150504 | 17 | 194 | 4.8 | 11.3 | 0.00 | 0.00 | 0.00 | 58 | 1007.9 |